sat.trackr.live / text

‹ back to catalog

STARLINK-2755

NORAD 48479 · 2021-040BD

PAYLOAD ACTIVE UNKNOWN

§ Identity

Operator
Country
US
Launch date
2021-05-09
Launch site
AFETR
Launch vehicle
Mass (kg)
RCS (m²)

Purposes: comms

External: N2YO · Heavens-Above · Gunter

§ Orbital elements

Epoch: 2026-05-25T03:34:07.446720Z

Period
94.01 min
Inclination
53.1602°
Eccentricity
0.0000988
Mean motion
15.31715918 rev/d
Perigee alt
470.0 km
Apogee alt
471.4 km
Semi-major
6,848.8 km
B*
5.9103e-4
RAAN
195.7745°
Arg perigee
79.1476°
Mean anomaly
280.9636°
Rev number
27,820

§ Raw data

STARLINK-27551 48479U 21040BD  26145.14869730  .00018029  00000+0  59103-3 0  99952 48479  53.1602 195.7745 0000988  79.1476 280.9636 15.31715918278202

JSON: /api/v1/satellites/48479 · /tle

For live sub-satellite position, see the globe view (requires WebGL).

§ Visibility from observer

Set your observer location to see the next 7 days of passes ≥ 10°. The values pass through the URL so the page stays shareable.

No JS? Fill the form by hand. The geolocation button needs JavaScript.